• In Deutschland
  • Länderverzeichnis
  • Für 7 Tage
  • Wassertemperatur
  • Satellitenkarten
  • Wetterkarte
  • Widgets
  • user-avatar
    Anmelden

    Stündliche Wetter Riedstadt

    Heute, 22 Juli, Sonntag

    Zeit Temperatur Niederschläge Wind Luftdruck Luftfeuchtigkeit
    00:00 +20°C° 0,1 mm 1 m/S 752 mmHg 82%
    01:00 +18°C° 0 mm 0 m/S 752 mmHg 85%
    02:00 +18°C° 0,1 mm 0 m/S 752 mmHg 85%
    03:00 +18°C° 0,1 mm 0 m/S 752 mmHg 86%
    04:00 +17°C° 0,1 mm 0 m/S 752 mmHg 86%
    05:00 +20°C° 0 mm 1 m/S 752 mmHg 84%
    06:00 +21°C° 0 mm 1 m/S 752 mmHg 81%
    07:00 +21°C° 0 mm 1 m/S 753 mmHg 79%
    08:00 +23°C° 0,1 mm 1 m/S 753 mmHg 74%
    09:00 +24°C° 0,1 mm 2 m/S 753 mmHg 69%
    10:00 +25°C° 0,1 mm 2 m/S 753 mmHg 64%
    11:00 +26°C° 0,7 mm 2 m/S 753 mmHg 62%
    12:00 +27°C° 0,7 mm 2 m/S 753 mmHg 61%
    13:00 +28°C° 0,7 mm 2 m/S 753 mmHg 60%
    14:00 +28°C° 1 mm 2 m/S 752 mmHg 60%
    15:00 +28°C° 1 mm 2 m/S 752 mmHg 60%
    16:00 +28°C° 1 mm 2 m/S 752 mmHg 60%
    17:00 +27°C° 0,4 mm 2 m/S 752 mmHg 63%
    18:00 +26°C° 0,4 mm 2 m/S 752 mmHg 66%
    19:00 +26°C° 0,4 mm 2 m/S 752 mmHg 69%
    20:00 +24°C° 0 mm 2 m/S 753 mmHg 72%
    21:00 +23°C° 0 mm 1 m/S 753 mmHg 75%
    22:00 +22°C° 0 mm 1 m/S 753 mmHg 77%
    23:00 +21°C° 0 mm 1 m/S 754 mmHg 79%

    Morgen, 23 Juli, Montag

    Zeit Temperatur Niederschläge Wind Luftdruck Luftfeuchtigkeit
    00:00 +21°C° 0 mm 1 m/S 754 mmHg 80%
    01:00 +21°C° 0 mm 1 m/S 754 mmHg 82%
    02:00 +20°C° 0 mm 1 m/S 754 mmHg 83%
    03:00 +20°C° 0 mm 1 m/S 754 mmHg 84%
    04:00 +20°C° 0 mm 1 m/S 754 mmHg 85%
    05:00 +20°C° 0 mm 1 m/S 754 mmHg 82%
    06:00 +21°C° 0 mm 1 m/S 755 mmHg 79%
    07:00 +22°C° 0 mm 1 m/S 755 mmHg 77%
    08:00 +24°C° 0 mm 1 m/S 755 mmHg 69%
    09:00 +25°C° 0 mm 1 m/S 755 mmHg 61%
    10:00 +27°C° 0 mm 1 m/S 755 mmHg 54%
    11:00 +28°C° 0 mm 1 m/S 755 mmHg 50%
    12:00 +29°C° 0 mm 1 m/S 755 mmHg 46%
    13:00 +30°C° 0 mm 2 m/S 754 mmHg 42%
    14:00 +30°C° 0 mm 2 m/S 754 mmHg 42%
    15:00 +30°C° 0 mm 2 m/S 754 mmHg 42%
    16:00 +30°C° 0 mm 2 m/S 754 mmHg 42%
    17:00 +30°C° 0 mm 2 m/S 754 mmHg 47%
    18:00 +29°C° 0 mm 2 m/S 754 mmHg 51%
    19:00 +28°C° 0 mm 1 m/S 754 mmHg 55%
    20:00 +27°C° 0 mm 1 m/S 754 mmHg 59%
    21:00 +25°C° 0 mm 1 m/S 754 mmHg 62%
    22:00 +24°C° 0 mm 1 m/S 755 mmHg 65%
    23:00 +23°C° 0 mm 1 m/S 755 mmHg 68%

    übermorgen, 24 Juli, Dienstag

    Zeit Temperatur Niederschläge Wind Luftdruck Luftfeuchtigkeit
    00:00 +23°C° 0 mm 1 m/S 754 mmHg 70%
    01:00 +22°C° 0 mm 1 m/S 754 mmHg 72%
    02:00 +22°C° 0 mm 1 m/S 754 mmHg 74%
    03:00 +21°C° 0 mm 1 m/S 754 mmHg 76%
    04:00 +21°C° 0 mm 1 m/S 754 mmHg 78%
    05:00 +22°C° 0 mm 1 m/S 754 mmHg 75%
    06:00 +22°C° 0 mm 1 m/S 754 mmHg 73%
    07:00 +23°C° 0 mm 1 m/S 754 mmHg 70%
    08:00 +25°C° 0 mm 1 m/S 754 mmHg 64%
    09:00 +27°C° 0 mm 2 m/S 754 mmHg 58%
    10:00 +28°C° 0 mm 2 m/S 754 mmHg 52%
    11:00 +29°C° 0 mm 2 m/S 753 mmHg 49%
    12:00 +30°C° 0 mm 2 m/S 753 mmHg 45%
    13:00 +31°C° 0 mm 2 m/S 753 mmHg 42%
    14:00 +31°C° 0 mm 2 m/S 752 mmHg 42%
    15:00 +32°C° 0 mm 2 m/S 752 mmHg 41%
    16:00 +32°C° 0 mm 2 m/S 752 mmHg 40%
    17:00 +31°C° 0 mm 2 m/S 752 mmHg 44%
    18:00 +30°C° 0 mm 1 m/S 751 mmHg 48%
    19:00 +29°C° 0 mm 1 m/S 751 mmHg 52%
    20:00 +28°C° 0 mm 1 m/S 752 mmHg 55%
    21:00 +26°C° 0 mm 1 m/S 752 mmHg 58%
    22:00 +25°C° 0 mm 1 m/S 752 mmHg 61%
    23:00 +24°C° 0 mm 1 m/S 752 mmHg 63%

    25 Juli, Mittwoch

    Zeit Temperatur Niederschläge Wind Luftdruck Luftfeuchtigkeit
    00:00 +24°C° 0 mm 1 m/S 752 mmHg 66%
    01:00 +23°C° 0 mm 1 m/S 752 mmHg 68%
    02:00 +22°C° 0 mm 1 m/S 752 mmHg 70%
    03:00 +22°C° 0 mm 1 m/S 752 mmHg 72%
    04:00 +20°C° 0 mm 0 m/S 752 mmHg 73%
    05:00 +23°C° 0 mm 1 m/S 752 mmHg 71%
    06:00 +23°C° 0 mm 1 m/S 753 mmHg 69%
    07:00 +24°C° 0 mm 1 m/S 753 mmHg 67%
    08:00 +26°C° 0 mm 1 m/S 753 mmHg 61%
    09:00 +28°C° 0 mm 1 m/S 753 mmHg 55%
    10:00 +30°C° 0 mm 1 m/S 753 mmHg 49%
    11:00 +31°C° 0 mm 1 m/S 752 mmHg 45%
    12:00 +32°C° 0 mm 1 m/S 752 mmHg 41%
    13:00 +33°C° 0 mm 1 m/S 752 mmHg 38%
    14:00 +33°C° 0 mm 1 m/S 752 mmHg 37%
    15:00 +34°C° 0 mm 1 m/S 752 mmHg 36%
    16:00 +34°C° 0 mm 1 m/S 751 mmHg 35%
    17:00 +33°C° 0 mm 1 m/S 751 mmHg 40%
    18:00 +32°C° 0 mm 1 m/S 751 mmHg 44%
    19:00 +31°C° 0 mm 1 m/S 751 mmHg 49%
    20:00 +29°C° 0 mm 1 m/S 752 mmHg 52%
    21:00 +28°C° 0 mm 1 m/S 752 mmHg 55%
    22:00 +27°C° 0 mm 1 m/S 752 mmHg 58%
    23:00 +26°C° 0 mm 1 m/S 752 mmHg 61%

    26 Juli, Donnerstag

    Zeit Temperatur Niederschläge Wind Luftdruck Luftfeuchtigkeit
    00:00 +25°C° 0 mm 1 m/S 752 mmHg 64%
    01:00 +24°C° 0 mm 1 m/S 752 mmHg 67%
    02:00 +24°C° 0 mm 1 m/S 752 mmHg 69%
    03:00 +22°C° 0 mm 0 m/S 753 mmHg 71%
    04:00 +21°C° 0 mm 0 m/S 753 mmHg 73%
    05:00 +22°C° 0 mm 0 m/S 753 mmHg 71%
    06:00 +23°C° 0 mm 0 m/S 753 mmHg 69%
    07:00 +24°C° 0 mm 0 m/S 753 mmHg 67%
    08:00 +28°C° 0,1 mm 1 m/S 753 mmHg 62%
    09:00 +30°C° 0,1 mm 1 m/S 753 mmHg 56%
    10:00 +31°C° 0,1 mm 1 m/S 753 mmHg 51%
    11:00 +32°C° 0,1 mm 1 m/S 753 mmHg 47%
    12:00 +33°C° 0,1 mm 1 m/S 753 mmHg 42%
    13:00 +35°C° 0,1 mm 1 m/S 753 mmHg 38%
    14:00 +34°C° 0 mm 1 m/S 753 mmHg 39%
    15:00 +34°C° 0 mm 1 m/S 753 mmHg 40%
    16:00 +33°C° 0 mm 1 m/S 753 mmHg 41%
    17:00 +32°C° 0 mm 1 m/S 753 mmHg 45%
    18:00 +32°C° 0 mm 2 m/S 753 mmHg 49%
    19:00 +31°C° 0 mm 2 m/S 753 mmHg 53%
    20:00 +30°C° 0 mm 1 m/S 753 mmHg 56%
    21:00 +28°C° 0 mm 1 m/S 753 mmHg 59%
    22:00 +27°C° 0 mm 1 m/S 753 mmHg 62%
    23:00 +26°C° 0,1 mm 1 m/S 753 mmHg 64%

    27 Juli, Freitag

    Zeit Temperatur Niederschläge Wind Luftdruck Luftfeuchtigkeit
    00:00 +25°C° 0,1 mm 1 m/S 753 mmHg 67%
    01:00 +25°C° 0,1 mm 1 m/S 753 mmHg 69%
    02:00 +24°C° 0 mm 1 m/S 753 mmHg 70%
    03:00 +24°C° 0 mm 1 m/S 753 mmHg 71%
    04:00 +23°C° 0 mm 1 m/S 753 mmHg 71%
    05:00 +24°C° 0 mm 1 m/S 753 mmHg 69%
    06:00 +24°C° 0 mm 1 m/S 753 mmHg 67%
    07:00 +25°C° 0 mm 1 m/S 753 mmHg 64%
    08:00 +27°C° 0 mm 1 m/S 753 mmHg 58%
    09:00 +29°C° 0 mm 2 m/S 753 mmHg 51%
    10:00 +30°C° 0 mm 2 m/S 753 mmHg 45%
    11:00 +31°C° 0 mm 2 m/S 752 mmHg 41%
    12:00 +32°C° 0 mm 2 m/S 752 mmHg 38%
    13:00 +35°C° 0 mm 2 m/S 752 mmHg 35%
    14:00 +35°C° 0 mm 2 m/S 751 mmHg 34%
    15:00 +34°C° 0 mm 1 m/S 751 mmHg 33%
    16:00 +35°C° 0 mm 1 m/S 751 mmHg 32%
    17:00 +33°C° 0 mm 1 m/S 751 mmHg 36%
    18:00 +32°C° 0 mm 1 m/S 751 mmHg 41%
    19:00 +31°C° 0 mm 1 m/S 751 mmHg 45%
    20:00 +30°C° 0 mm 1 m/S 751 mmHg 48%
    21:00 +28°C° 0 mm 1 m/S 751 mmHg 52%
    22:00 +27°C° 0 mm 1 m/S 752 mmHg 55%
    23:00 +26°C° 0 mm 1 m/S 752 mmHg 57%
    Mehr zeigen